Our Location

Trim Flying Club is based at Weston Airport (EIWT).

Address

Dublin Weston Airport,
Backweston,
Leixlip,
County Kildare

Contact information for Weston

Phone: +353 (01) 6217300
Email: ops@westonairport.com
 
You can read more information on Weston from the IAA's aeronautical information package here.
  • Casement Aerodrome METER/TAF

    Casement Aerodrome is just south of Weston and has a regularly updated METAR and TAF which you can find below.

    Available data for EIME from the past 2 hours
    CASEMENT (MIL)
    Metar
    EIME 170000Z 24007KT 9999 BKN050 14/10 Q1015

    00:00 UTC

    Wind: 240° 7kt

    Visibility: 9999 m

    Sky: BKN 5000 ft

    Temp: 14 deg C / 57.2 deg F

    Dewpoint: 10 deg C / 50 deg F

    Pressure: 1015 hPa

    TAF
    TAF EIME 162300Z 1700/1709 25008KT 9999 FEW030 BKN045 BECMG 1706/1709 28007KT